Vicksburg, LA

11:23 PM CDT on April 19, 2018 (GMT -0500)
Vicksburg Tallulah Regional

Weather History for KTVR - January, 2014

Change the Weather History Date:

Thursday, January 2, 2014

  Actual Average Record
Temperature  
Mean Temperature 44 °F 46 °F  
Max Temperature 56 °F 56 °F 80 °F (1952)
Min Temperature 32 °F 35 °F 12 °F (1977)
Degree Days  
Heating Degree Days 21 20  
Month to date heating degree days 39 39  
Since 1 July heating degree days 1164 976  
Cooling Degree Days 0 0  
Month to date cooling degree days 0 0  
Year to date cooling degree days 0 0  
Moisture  
Dew Point 41 °F    
Average Humidity 75    
Maximum Humidity 100    
Minimum Humidity 49    
Precipitation  
Precipitation 0.15 in 0.15 in 1.61 in (1972)
Month to date precipitation 0.31 0.30  
Year to date precipitation 0.31 0.30  
Sea Level Pressure  
Sea Level Pressure 30.15 in    
Wind  
Wind Speed 11 mph (WNW)    
Max Wind Speed 22 mph    
Max Gust Speed 32 mph    
Visibility 8 miles    
Events Rain , Snow    
T = Trace of Precipitation, MM = Missing Value Source: NWS Daily Summary

Daily Weather History Graph

Daily Weather History Graph

Search for Another Location

Airport or City:

Astronomy

Jan. 02, 2014 Rise Set
Actual Time 7:05 AM CST 5:10 PM CST
Civil Twilight 6:38 AM CST 5:37 PM CST
Nautical Twilight 6:08 AM CST 6:08 PM CST
Astronomical Twilight 5:38 AM CST 6:38 PM CST
Moon 7:53 AM CST (1/2) 7:00 PM CST (1/2)
Length of Visible Light 10h 59m
Length of Day
10h 05m
Waxing Crescent, 3% of the Moon is Illuminated
Jan 2
Waxing Crescent
Jan 7
First Quarter
Jan 15
Full
Jan 23
Last Quarter
Jan 30
New

Hourly Weather History & Observations

Time (CST) Temp. Windchill Dew Point Humidity Pressure Visibility Wind Dir Wind Speed Gust Speed Precip Events Conditions
12:21 AM 54.0 °F - 53.1 °F 97% 30.01 in 1.8 mi South 3.5 mph - 0.06 in Rain Heavy Rain
12:29 AM 54.0 °F - 53.1 °F 97% 30.01 in 2.5 mi Calm Calm - 0.08 in Rain Rain
12:39 AM 54.0 °F - 53.1 °F 97% 30.01 in 4.0 mi SW 3.5 mph - 0.08 in Rain Light Rain
12:53 AM 54.0 °F - 53.1 °F 97% 30.03 in 2.5 mi Variable 3.5 mph - 0.11 in Rain Rain
1:16 AM 54.0 °F - 53.1 °F 97% 30.01 in 3.0 mi SW 3.5 mph - 0.03 in Rain Light Rain
1:53 AM 54.0 °F - 53.1 °F 97% 30.02 in 7.0 mi South 4.6 mph - 0.04 in   Overcast
2:01 AM 54.0 °F - 53.1 °F 97% 30.00 in 7.0 mi Calm Calm - N/A   Overcast
2:53 AM 54.0 °F - 53.1 °F 97% 30.01 in 5.0 mi SW 5.8 mph - N/A   Overcast
3:29 AM 54.0 °F - 53.1 °F 97% 29.99 in 5.0 mi WSW 4.6 mph - N/A   Overcast
3:37 AM 54.0 °F - 53.1 °F 97% 29.99 in 5.0 mi WSW 4.6 mph - N/A   Overcast
3:53 AM 54.0 °F - 53.1 °F 97% 30.01 in 6.0 mi WSW 5.8 mph - N/A   Overcast
4:00 AM 54.0 °F - 53.1 °F 97% 29.98 in 6.0 mi WSW 5.8 mph - N/A   Overcast
4:14 AM 54.0 °F - 53.1 °F 97% 29.98 in 6.0 mi WSW 5.8 mph - N/A   Overcast
4:40 AM 55.0 °F - 53.1 °F 93% 29.98 in 7.0 mi WSW 6.9 mph - N/A   Overcast
4:53 AM 55.9 °F - 54.0 °F 93% 30.00 in 9.0 mi West 9.2 mph - N/A   Overcast
5:24 AM 55.0 °F - 53.1 °F 93% 29.98 in 10.0 mi West 5.8 mph - N/A   Mostly Cloudy
5:53 AM 55.0 °F - 51.1 °F 86% 30.01 in 10.0 mi WNW 13.8 mph 23.0 mph N/A   Scattered Clouds
6:53 AM 53.1 °F - 48.0 °F 83% 30.04 in 10.0 mi WNW 13.8 mph - N/A   Mostly Cloudy
7:19 AM 52.0 °F - 45.0 °F 77% 30.05 in 10.0 mi NW 13.8 mph 24.2 mph N/A   Overcast
7:53 AM 51.1 °F - 43.0 °F 74% 30.10 in 10.0 mi NW 13.8 mph 23.0 mph N/A   Overcast
8:53 AM 46.9 °F - 36.0 °F 66% 30.17 in 10.0 mi NW 16.1 mph 27.6 mph N/A   Mostly Cloudy
9:53 AM 46.9 °F - 33.1 °F 59% 30.22 in 10.0 mi NNW 18.4 mph 26.5 mph N/A   Partly Cloudy
10:53 AM 45.0 °F 37.9 °F 32.0 °F 60% 30.25 in 10.0 mi NNW 16.1 mph 25.3 mph N/A   Partly Cloudy
11:53 AM 45.0 °F 39.3 °F 30.0 °F 56% 30.26 in 10.0 mi NNW 11.5 mph 21.9 mph N/A   Scattered Clouds
12:53 PM 45.0 °F 36.6 °F 28.9 °F 53% 30.25 in 10.0 mi North 21.9 mph 28.8 mph N/A   Clear
2:53 PM 44.1 °F 37.7 °F 26.1 °F 49% 30.30 in 10.0 mi North 12.7 mph 21.9 mph 0.00 in Rain Light Rain
3:53 PM 43.0 °F 36.4 °F 23.0 °F 45% 30.31 in 10.0 mi North 12.7 mph - 0.00 in   Clear
4:53 PM 39.9 °F 33.9 °F 23.0 °F 51% 30.35 in 10.0 mi NNW 9.2 mph 16.1 mph 0.00 in   Clear
5:53 PM 37.0 °F 32.4 °F 23.0 °F 57% 30.36 in 10.0 mi NNW 5.8 mph - N/A   Clear
6:53 PM 36.0 °F 30.3 °F 23.0 °F 59% 30.39 in 10.0 mi NNW 6.9 mph - N/A   Clear
7:53 PM 35.1 °F 29.3 °F 23.0 °F 61% 30.42 in 10.0 mi North 6.9 mph - N/A   Clear
8:53 PM 34.0 °F 29.8 °F 24.1 °F 67% 30.43 in 10.0 mi North 4.6 mph - N/A   Clear
9:53 PM 33.1 °F 28.7 °F 24.1 °F 70% 30.44 in 10.0 mi NNW 4.6 mph - N/A   Clear
10:53 PM 34.0 °F 26.6 °F 23.0 °F 64% 30.45 in 10.0 mi North 9.2 mph - 0.00 in Snow Light Snow
11:53 PM 32.0 °F 24.2 °F 21.9 °F 66% 30.45 in 9.0 mi NNE 9.2 mph - 0.00 in Snow Light Snow